Wittman Regional Airport (Oshkosh, WI) (OSH)


Airport Diagram
Current Weather/Forecast (VFR Conditions)
METAR KOSH 260153Z AUTO 27003KT 10SM CLR 24/16 A2992 RMK AO2 SLP121 T02390156
TAF KOSH 252332Z 2600/2624 29008KT P6SM SKC FM260200 27005KT P6SM SKC FM261400 26007KT P6SM SKC FM261800 25009G15KT P6SM SCT250

All Charts
General
Chart Name Download
AIRPORT DIAGRAM
TAKEOFF MINIMUMS
ALTERNATE MINIMUMS
HOT SPOT

Approaches
Chart Name Download
ILS OR LOC RWY 36
RNAV (GPS) RWY 09
RNAV (GPS) RWY 18
RNAV (GPS) RWY 27
RNAV (GPS) RWY 36
LOC/DME BC RWY 18
VOR RWY 09
VOR RWY 18
VOR RWY 27
VOR RWY 36
NDB RWY 36